Time,TemperatureF,DewpointF,PressureIn,WindDirection,WindDirectionDegrees,WindSpeedMPH,WindSpeedGustMPH,Humidity,HourlyPrecipIn,Conditions,Clouds,dailyrainin,SoftwareType,DateUTC
2013-04-27 00:01:00,76.6,64.9,30.15,ESE,112,5.8,5.8,67,0.00,CLR,,0.00,WeatherDisplay:10.37,2013-04-27 04:01:00,
2013-04-27 00:02:00,76.6,64.9,30.15,ENE,68,0.0,2.5,67,0.00,CLR,,0.00,WeatherDisplay:10.37,2013-04-27 04:02:00,
2013-04-27 00:07:00,76.6,64.9,30.15,SSE,158,3.5,3.5,67,0.00,CLR,,0.00,WeatherDisplay:10.37,2013-04-27 04:07:00,
2013-04-27 00:12:00,76.8,64.6,30.15,SSE,158,6.9,6.9,66,0.00,CLR,,0.00,WeatherDisplay:10.37,2013-04-27 04:12:00,
2013-04-27 00:17:00,76.6,64.4,30.15,ENE,68,5.8,5.8,66,0.00,CLR,,0.00,WeatherDisplay:10.37,2013-04-27 04:17:00,
2013-04-27 00:22:00,76.6,64.0,30.15,ESE,112,3.5,3.5,65,0.00,CLR,,0.00,WeatherDisplay:10.37,2013-04-27 04:22:00,
2013-04-27 00:27:00,76.6,64.4,30.15,East,90,6.9,6.9,66,0.00,CLR,,0.00,WeatherDisplay:10.37,2013-04-27 04:27:00,
2013-04-27 00:32:00,76.5,64.3,30.15,ESE,112,6.9,6.9,66,0.00,CLR,,0.00,WeatherDisplay:10.37,2013-04-27 04:32:00,
2013-04-27 00:37:00,76.5,64.3,30.14,East,90,4.6,4.6,66,0.00,CLR,,0.00,WeatherDisplay:10.37,2013-04-27 04:37:00,
2013-04-27 00:42:00,76.5,64.3,30.14,NE,45,2.3,2.5,66,0.00,CLR,,0.00,WeatherDisplay:10.37,2013-04-27 04:42:00,
2013-04-27 00:47:00,76.5,64.3,30.14,NNE,22,5.8,5.8,66,0.00,CLR,,0.00,WeatherDisplay:10.37,2013-04-27 04:47:00,
2013-04-27 00:52:00,76.5,64.3,30.14,NNE,22,4.6,4.6,66,0.00,CLR,,0.00,WeatherDisplay:10.37,2013-04-27 04:52:00,
2013-04-27 00:57:00,76.5,64.7,30.14,SSE,158,3.5,3.5,67,0.00,CLR,,0.00,WeatherDisplay:10.37,2013-04-27 04:57:00,
2013-04-27 01:02:00,76.5,64.3,30.14,North,0,2.3,2.4,66,0.00,CLR,,0.00,WeatherDisplay:10.37,2013-04-27 05:02:00,
2013-04-27 01:07:00,76.5,64.7,30.14,East,90,10.4,10.4,67,0.00,CLR,,0.00,WeatherDisplay:10.37,2013-04-27 05:07:00,
2013-04-27 01:12:00,76.3,64.1,30.14,NE,45,3.5,3.5,66,0.00,CLR,,0.00,WeatherDisplay:10.37,2013-04-27 05:12:00,
2013-04-27 01:17:00,76.3,64.5,30.14,NE,45,4.6,4.6,67,0.00,CLR,,0.00,WeatherDisplay:10.37,2013-04-27 05:17:00,
2013-04-27 01:22:00,76.1,63.9,30.14,ENE,68,5.8,5.8,66,0.00,CLR,,0.00,WeatherDisplay:10.37,2013-04-27 05:22:00,
2013-04-27 01:27:00,76.1,64.3,30.14,ENE,68,4.6,4.6,67,0.00,CLR,,0.00,WeatherDisplay:10.37,2013-04-27 05:27:00,
2013-04-27 01:32:00,76.1,64.3,30.14,NE,45,3.5,3.5,67,0.00,CLR,,0.00,WeatherDisplay:10.37,2013-04-27 05:32:00,
2013-04-27 01:37:00,76.3,64.5,30.13,ENE,68,4.6,4.6,67,0.00,CLR,,0.00,WeatherDisplay:10.37,2013-04-27 05:37:00,
2013-04-27 01:42:00,76.1,64.3,30.13,North,0,5.8,5.8,67,0.00,CLR,,0.00,WeatherDisplay:10.37,2013-04-27 05:42:00,
2013-04-27 01:47:00,75.9,64.2,30.13,North,0,3.5,3.5,67,0.00,CLR,,0.00,WeatherDisplay:10.37,2013-04-27 05:47:00,
2013-04-27 01:52:00,76.1,63.9,30.13,NNW,338,2.3,2.8,66,0.00,CLR,,0.00,WeatherDisplay:10.37,2013-04-27 05:52:00,
2013-04-27 01:57:00,75.9,63.7,30.12,NE,45,5.8,5.8,66,0.00,CLR,,0.00,WeatherDisplay:10.37,2013-04-27 05:57:00,
2013-04-27 02:02:00,75.7,63.6,30.12,NNE,22,3.5,3.5,66,0.00,CLR,,0.00,WeatherDisplay:10.37,2013-04-27 06:02:00,
2013-04-27 02:07:00,75.7,63.1,30.12,ENE,68,2.3,2.8,65,0.00,CLR,,0.00,WeatherDisplay:10.37,2013-04-27 06:07:00,
2013-04-27 02:12:00,75.7,63.1,30.12,NE,45,6.9,6.9,65,0.00,CLR,,0.00,WeatherDisplay:10.37,2013-04-27 06:12:00,
2013-04-27 02:17:00,75.6,63.0,30.11,NE,45,4.6,4.6,65,0.00,CLR,,0.00,WeatherDisplay:10.37,2013-04-27 06:17:00,
2013-04-27 02:22:00,75.7,63.6,30.11,ESE,112,4.6,4.6,66,0.00,CLR,,0.00,WeatherDisplay:10.37,2013-04-27 06:22:00,
2013-04-27 02:27:00,75.7,63.6,30.11,East,90,2.3,2.6,66,0.00,CLR,,0.00,WeatherDisplay:10.37,2013-04-27 06:27:00,
2013-04-27 02:32:00,75.4,62.8,30.11,ESE,112,4.6,4.6,65,0.00,CLR,,0.00,WeatherDisplay:10.37,2013-04-27 06:32:00,
2013-04-27 02:37:00,75.4,62.8,30.10,ENE,68,1.1,2.2,65,0.00,CLR,,0.00,WeatherDisplay:10.37,2013-04-27 06:37:00,
2013-04-27 02:42:00,75.2,62.6,30.10,ESE,112,5.8,5.8,65,0.00,CLR,,0.00,WeatherDisplay:10.37,2013-04-27 06:42:00,
2013-04-27 02:47:00,75.4,62.4,30.10,SE,135,1.1,2.6,64,0.00,CLR,,0.00,WeatherDisplay:10.37,2013-04-27 06:47:00,
2013-04-27 02:52:00,75.4,62.8,30.10,ESE,112,5.8,5.8,65,0.00,CLR,,0.00,WeatherDisplay:10.37,2013-04-27 06:52:00,
2013-04-27 02:57:00,75.2,62.6,30.11,ESE,112,3.5,3.5,65,0.00,CLR,,0.00,WeatherDisplay:10.37,2013-04-27 06:57:00,
2013-04-27 03:02:00,75.2,62.2,30.11,East,90,6.9,6.9,64,0.00,CLR,,0.00,WeatherDisplay:10.37,2013-04-27 07:02:00,
2013-04-27 03:07:00,75.2,62.6,30.11,ENE,68,5.8,5.8,65,0.00,CLR,,0.00,WeatherDisplay:10.37,2013-04-27 07:07:00,
2013-04-27 03:12:00,75.2,62.2,30.11,ENE,68,4.6,4.6,64,0.00,CLR,,0.00,WeatherDisplay:10.37,2013-04-27 07:12:00,
2013-04-27 03:17:00,75.2,62.2,30.10,ENE,68,3.5,3.5,64,0.00,CLR,,0.00,WeatherDisplay:10.37,2013-04-27 07:17:00,
2013-04-27 03:22:00,75.0,62.0,30.10,East,90,5.8,5.8,64,0.00,CLR,,0.00,WeatherDisplay:10.37,2013-04-27 07:22:00,
2013-04-27 03:27:00,75.0,62.0,30.10,ESE,112,3.5,3.5,64,0.00,CLR,,0.00,WeatherDisplay:10.37,2013-04-27 07:27:00,
2013-04-27 03:32:00,75.0,62.5,30.10,NW,315,3.5,3.5,65,0.00,CLR,,0.00,WeatherDisplay:10.37,2013-04-27 07:32:00,
2013-04-27 03:37:00,75.0,62.0,30.10,ENE,68,4.6,4.6,64,0.00,CLR,,0.00,WeatherDisplay:10.37,2013-04-27 07:37:00,
2013-04-27 03:42:00,75.0,62.5,30.10,NE,45,4.6,4.6,65,0.00,CLR,,0.00,WeatherDisplay:10.37,2013-04-27 07:42:00,
2013-04-27 03:47:00,75.0,62.5,30.10,ENE,68,3.5,3.5,65,0.00,CLR,,0.00,WeatherDisplay:10.37,2013-04-27 07:47:00,
2013-04-27 03:52:00,75.0,62.5,30.10,East,90,5.8,5.8,65,0.00,CLR,,0.00,WeatherDisplay:10.37,2013-04-27 07:52:00,
2013-04-27 03:57:00,75.0,62.0,30.10,ENE,68,6.9,6.9,64,0.00,CLR,,0.00,WeatherDisplay:10.37,2013-04-27 07:57:00,
2013-04-27 04:02:00,75.0,62.0,30.10,East,90,4.6,4.6,64,0.00,CLR,,0.00,WeatherDisplay:10.37,2013-04-27 08:02:00,
2013-04-27 04:07:00,75.0,62.5,30.10,NNW,338,2.3,3.0,65,0.00,CLR,,0.00,WeatherDisplay:10.37,2013-04-27 08:07:00,
2013-04-27 04:12:00,74.8,61.8,30.10,ESE,112,2.3,3.2,64,0.00,CLR,,0.00,WeatherDisplay:10.37,2013-04-27 08:12:00,
2013-04-27 04:17:00,74.8,61.8,30.08,East,90,5.8,5.8,64,0.00,CLR,,0.00,WeatherDisplay:10.37,2013-04-27 08:17:00,
2013-04-27 04:22:00,74.7,61.7,30.08,ENE,68,4.6,4.6,64,0.00,CLR,,0.00,WeatherDisplay:10.37,2013-04-27 08:22:00,
2013-04-27 04:27:00,74.7,61.7,30.08,ESE,112,5.8,5.8,64,0.00,CLR,,0.00,WeatherDisplay:10.37,2013-04-27 08:27:00,
2013-04-27 04:32:00,74.5,61.5,30.08,ENE,68,2.3,2.8,64,0.00,CLR,,0.00,WeatherDisplay:10.37,2013-04-27 08:32:00,
2013-04-27 04:37:00,74.5,61.9,30.08,ENE,68,4.6,4.6,65,0.00,CLR,,0.00,WeatherDisplay:10.37,2013-04-27 08:37:00,
2013-04-27 04:42:00,74.7,62.5,30.08,SE,135,4.6,4.6,66,0.00,CLR,,0.00,WeatherDisplay:10.37,2013-04-27 08:42:00,
2013-04-27 04:47:00,74.5,61.9,30.08,ESE,112,5.8,5.8,65,0.00,CLR,,0.00,WeatherDisplay:10.37,2013-04-27 08:47:00,
2013-04-27 04:52:00,74.7,61.7,30.08,NNE,22,2.3,2.6,64,0.00,CLR,,0.00,WeatherDisplay:10.37,2013-04-27 08:52:00,
2013-04-27 04:57:00,74.5,61.5,30.08,ESE,112,2.3,2.5,64,0.00,CLR,,0.00,WeatherDisplay:10.37,2013-04-27 08:57:00,
2013-04-27 05:02:00,74.5,62.4,30.08,SE,135,4.6,4.6,66,0.00,CLR,,0.00,WeatherDisplay:10.37,2013-04-27 09:02:00,
2013-04-27 05:07:00,74.3,62.2,30.08,ENE,68,4.6,4.6,66,0.00,CLR,,0.00,WeatherDisplay:10.37,2013-04-27 09:07:00,
2013-04-27 05:12:00,74.3,62.2,30.08,ESE,112,3.5,3.5,66,0.00,CLR,,0.00,WeatherDisplay:10.37,2013-04-27 09:12:00,
2013-04-27 05:17:00,74.1,62.5,30.07,ESE,112,4.6,4.6,67,0.00,CLR,,0.00,WeatherDisplay:10.37,2013-04-27 09:17:00,
2013-04-27 05:22:00,73.9,62.3,30.07,ESE,112,4.6,4.6,67,0.00,CLR,,0.00,WeatherDisplay:10.37,2013-04-27 09:22:00,
2013-04-27 05:27:00,73.8,62.5,30.07,SE,135,3.5,3.5,68,0.00,CLR,,0.00,WeatherDisplay:10.37,2013-04-27 09:27:00,
2013-04-27 05:32:00,73.8,62.5,30.07,NNE,22,5.8,5.8,68,0.00,CLR,,0.00,WeatherDisplay:10.37,2013-04-27 09:32:00,
2013-04-27 05:37:00,73.6,62.4,30.07,SSW,202,3.5,3.5,68,0.00,CLR,,0.00,WeatherDisplay:10.37,2013-04-27 09:37:00,
2013-04-27 05:42:00,73.6,62.4,30.07,NNW,338,3.5,3.5,68,0.00,CLR,,0.00,WeatherDisplay:10.37,2013-04-27 09:42:00,
2013-04-27 05:47:00,73.6,62.8,30.07,WSW,248,2.3,2.6,69,0.00,CLR,,0.00,WeatherDisplay:10.37,2013-04-27 09:47:00,
2013-04-27 05:52:00,73.4,61.8,30.07,NE,45,5.8,5.8,67,0.00,CLR,,0.00,WeatherDisplay:10.37,2013-04-27 09:52:00,
2013-04-27 05:57:00,73.6,62.4,30.07,NNE,22,3.5,3.5,68,0.00,CLR,,0.00,WeatherDisplay:10.37,2013-04-27 09:57:00,
2013-04-27 06:02:00,73.4,62.2,30.07,ENE,68,4.6,4.6,68,0.00,CLR,,0.00,WeatherDisplay:10.37,2013-04-27 10:02:00,
2013-04-27 06:07:00,73.6,62.4,30.07,ENE,68,2.3,2.3,68,0.00,CLR,,0.00,WeatherDisplay:10.37,2013-04-27 10:07:00,
2013-04-27 06:12:00,73.4,62.2,30.07,ESE,112,4.6,4.6,68,0.00,CLR,,0.00,WeatherDisplay:10.37,2013-04-27 10:12:00,
2013-04-27 06:17:00,73.4,62.6,30.07,NNE,22,2.3,2.8,69,0.00,CLR,,0.00,WeatherDisplay:10.37,2013-04-27 10:17:00,
2013-04-27 06:22:00,73.4,62.6,30.07,ESE,112,3.5,3.5,69,0.00,CLR,,0.00,WeatherDisplay:10.37,2013-04-27 10:22:00,
2013-04-27 06:27:00,73.4,62.6,30.07,ENE,68,3.5,3.5,69,0.00,CLR,,0.00,WeatherDisplay:10.37,2013-04-27 10:27:00,
2013-04-27 06:32:00,73.6,62.8,30.07,SSE,158,2.3,2.3,69,0.00,CLR,,0.00,WeatherDisplay:10.37,2013-04-27 10:32:00,
2013-04-27 06:37:00,73.6,62.8,30.08,East,90,0.0,1.1,69,0.00,CLR,,0.00,WeatherDisplay:10.37,2013-04-27 10:37:00,
2013-04-27 06:42:00,73.6,62.8,30.08,ENE,68,3.5,3.5,69,0.00,CLR,,0.00,WeatherDisplay:10.37,2013-04-27 10:42:00,
2013-04-27 06:47:00,73.8,63.0,30.08,SSE,158,2.3,2.6,69,0.00,CLR,,0.00,WeatherDisplay:10.37,2013-04-27 10:47:00,
2013-04-27 06:52:00,73.8,63.0,30.08,East,90,3.5,3.5,69,0.00,CLR,,0.00,WeatherDisplay:10.37,2013-04-27 10:52:00,
2013-04-27 06:57:00,73.6,62.4,30.08,ENE,68,2.3,2.6,68,0.00,CLR,,0.00,WeatherDisplay:10.37,2013-04-27 10:57:00,
2013-04-27 07:02:00,73.8,62.5,30.08,NNE,22,3.5,3.5,68,0.00,CLR,,0.00,WeatherDisplay:10.37,2013-04-27 11:02:00,
2013-04-27 07:07:00,73.8,62.5,30.08,NNE,22,3.5,3.5,68,0.00,CLR,,0.00,WeatherDisplay:10.37,2013-04-27 11:07:00,
2013-04-27 07:12:00,74.1,62.5,30.08,ENE,68,4.6,4.6,67,0.00,CLR,,0.00,WeatherDisplay:10.37,2013-04-27 11:12:00,
2013-04-27 07:17:00,74.3,62.6,30.09,SE,135,2.3,2.5,67,0.00,CLR,,0.00,WeatherDisplay:10.37,2013-04-27 11:17:00,
2013-04-27 07:22:00,74.3,62.6,30.09,ENE,68,3.5,3.5,67,0.00,CLR,,0.00,WeatherDisplay:10.37,2013-04-27 11:22:00,
2013-04-27 07:27:00,74.5,62.8,30.09,NE,45,2.3,2.4,67,0.00,CLR,,0.00,WeatherDisplay:10.37,2013-04-27 11:27:00,
2013-04-27 07:32:00,74.7,63.0,30.09,ENE,68,5.8,5.8,67,0.00,CLR,,0.00,WeatherDisplay:10.37,2013-04-27 11:32:00,
2013-04-27 07:37:00,75.0,63.3,30.10,NE,45,4.6,4.6,67,0.00,CLR,,0.00,WeatherDisplay:10.37,2013-04-27 11:37:00,
2013-04-27 07:42:00,75.2,63.1,30.10,ESE,112,4.6,4.6,66,0.00,CLR,,0.00,WeatherDisplay:10.37,2013-04-27 11:42:00,
2013-04-27 07:47:00,75.4,63.2,30.10,NE,45,4.6,4.6,66,0.00,CLR,,0.00,WeatherDisplay:10.37,2013-04-27 11:47:00,
2013-04-27 07:53:00,75.7,63.6,30.10,ENE,68,4.6,4.6,66,0.00,CLR,,0.00,WeatherDisplay:10.37,2013-04-27 11:53:00,
2013-04-27 07:58:00,75.9,63.3,30.10,ESE,112,2.3,2.5,65,0.00,CLR,,0.00,WeatherDisplay:10.37,2013-04-27 11:58:00,
2013-04-27 08:03:00,75.9,63.3,30.10,East,90,3.5,3.5,65,0.00,CLR,,0.00,WeatherDisplay:10.37,2013-04-27 12:03:00,
2013-04-27 08:08:00,76.1,63.5,30.10,ESE,112,4.6,4.6,65,0.00,CLR,,0.00,WeatherDisplay:10.37,2013-04-27 12:08:00,
2013-04-27 08:13:00,76.1,63.5,30.10,ENE,68,5.8,5.8,65,0.00,CLR,,0.00,WeatherDisplay:10.37,2013-04-27 12:13:00,
2013-04-27 08:18:00,76.5,63.4,30.10,SSE,158,3.5,3.5,64,0.00,CLR,,0.00,WeatherDisplay:10.37,2013-04-27 12:18:00,
2013-04-27 08:23:00,76.8,63.3,30.10,NNE,22,2.3,3.2,63,0.00,CLR,,0.00,WeatherDisplay:10.37,2013-04-27 12:23:00,
2013-04-27 08:28:00,77.0,63.0,30.10,ENE,68,5.8,5.8,62,0.00,CLR,,0.00,WeatherDisplay:10.37,2013-04-27 12:28:00,
2013-04-27 08:33:00,77.2,63.2,30.10,SE,135,5.8,5.8,62,0.00,CLR,,0.00,WeatherDisplay:10.37,2013-04-27 12:33:00,
2013-04-27 08:38:00,77.2,63.2,30.11,SSE,158,6.9,6.9,62,0.00,CLR,,0.00,WeatherDisplay:10.37,2013-04-27 12:38:00,
2013-04-27 08:43:00,77.4,63.8,30.11,ENE,68,5.8,5.8,63,0.00,CLR,,0.00,WeatherDisplay:10.37,2013-04-27 12:43:00,
2013-04-27 08:48:00,77.9,63.8,30.11,North,0,5.8,5.8,62,0.00,CLR,,0.00,WeatherDisplay:10.37,2013-04-27 12:48:00,
2013-04-27 08:53:00,77.9,64.3,30.11,SE,135,4.6,4.6,63,0.00,CLR,,0.00,WeatherDisplay:10.37,2013-04-27 12:53:00,
2013-04-27 08:58:00,78.3,64.6,30.10,ESE,112,5.8,5.8,63,0.00,CLR,,0.00,WeatherDisplay:10.37,2013-04-27 12:58:00,
2013-04-27 09:03:00,78.3,64.2,30.10,ESE,112,4.6,4.6,62,0.00,CLR,,0.00,WeatherDisplay:10.37,2013-04-27 13:03:00,
2013-04-27 09:08:00,78.6,64.0,30.10,ESE,112,5.8,5.8,61,0.00,CLR,,0.00,WeatherDisplay:10.37,2013-04-27 13:08:00,
2013-04-27 09:13:00,78.8,64.7,30.10,East,90,8.1,8.1,62,0.00,CLR,,0.00,WeatherDisplay:10.37,2013-04-27 13:13:00,
2013-04-27 09:18:00,78.8,64.7,30.10,SE,135,6.9,6.9,62,0.00,CLR,,0.00,WeatherDisplay:10.37,2013-04-27 13:18:00,
2013-04-27 09:23:00,78.8,64.7,30.10,ESE,112,5.8,5.8,62,0.00,CLR,,0.00,WeatherDisplay:10.37,2013-04-27 13:23:00,
2013-04-27 09:28:00,79.2,65.5,30.10,ENE,68,5.8,5.8,63,0.00,CLR,,0.00,WeatherDisplay:10.37,2013-04-27 13:28:00,
2013-04-27 09:33:00,79.5,65.4,30.10,NNW,338,3.5,3.6,62,0.00,CLR,,0.00,WeatherDisplay:10.37,2013-04-27 13:33:00,
2013-04-27 09:38:00,79.7,65.1,30.10,SE,135,8.1,8.1,61,0.00,CLR,,0.00,WeatherDisplay:10.37,2013-04-27 13:38:00,
2013-04-27 09:43:00,79.5,64.9,30.10,ESE,112,4.6,4.8,61,0.00,CLR,,0.00,WeatherDisplay:10.37,2013-04-27 13:43:00,
2013-04-27 09:48:00,79.7,65.5,30.10,East,90,6.9,6.9,62,0.00,CLR,,0.00,WeatherDisplay:10.37,2013-04-27 13:48:00,
2013-04-27 09:53:00,80.1,65.4,30.10,ENE,68,9.2,9.2,61,0.00,CLR,,0.00,WeatherDisplay:10.37,2013-04-27 13:53:00,
2013-04-27 09:58:00,80.1,65.4,30.11,ENE,68,5.8,5.8,61,0.00,CLR,,0.00,WeatherDisplay:10.37,2013-04-27 13:58:00,
2013-04-27 10:03:00,80.2,65.6,30.11,ESE,112,6.9,6.9,61,0.00,CLR,,0.00,WeatherDisplay:10.37,2013-04-27 14:03:00,
2013-04-27 10:08:00,80.2,65.1,30.11,ESE,112,6.9,6.9,60,0.00,CLR,,0.00,WeatherDisplay:10.37,2013-04-27 14:08:00,
2013-04-27 10:13:00,80.6,65.9,30.11,ENE,68,4.6,4.6,61,0.00,CLR,,0.00,WeatherDisplay:10.37,2013-04-27 14:13:00,
2013-04-27 10:18:00,81.0,65.8,30.11,ENE,68,2.3,3.6,60,0.00,CLR,,0.00,WeatherDisplay:10.37,2013-04-27 14:18:00,
2013-04-27 10:23:00,81.5,66.3,30.11,South,180,6.9,6.9,60,0.00,CLR,,0.00,WeatherDisplay:10.37,2013-04-27 14:23:00,
2013-04-27 10:28:00,81.5,66.3,30.11,SE,135,5.8,5.8,60,0.00,CLR,,0.00,WeatherDisplay:10.37,2013-04-27 14:28:00,
2013-04-27 10:33:00,81.5,65.8,30.11,SE,135,8.1,8.1,59,0.00,CLR,,0.00,WeatherDisplay:10.37,2013-04-27 14:33:00,
2013-04-27 10:38:00,81.5,65.3,30.11,East,90,6.9,6.9,58,0.00,CLR,,0.00,WeatherDisplay:10.37,2013-04-27 14:38:00,
2013-04-27 10:43:00,82.2,66.5,30.11,NE,45,6.9,6.9,59,0.00,CLR,,0.00,WeatherDisplay:10.37,2013-04-27 14:43:00,
2013-04-27 10:48:00,82.4,66.1,30.11,East,90,9.2,9.2,58,0.00,CLR,,0.00,WeatherDisplay:10.37,2013-04-27 14:48:00,
2013-04-27 10:53:00,82.2,66.0,30.11,SE,135,9.2,9.2,58,0.00,CLR,,0.00,WeatherDisplay:10.37,2013-04-27 14:53:00,
2013-04-27 10:58:00,81.7,65.5,30.11,ENE,68,9.2,9.2,58,0.00,CLR,,0.00,WeatherDisplay:10.37,2013-04-27 14:58:00,
2013-04-27 11:03:00,82.2,66.5,30.11,NE,45,4.6,5.1,59,0.00,CLR,,0.00,WeatherDisplay:10.37,2013-04-27 15:03:00,
2013-04-27 11:08:00,82.2,66.0,30.11,East,90,5.8,5.8,58,0.00,CLR,,0.00,WeatherDisplay:10.37,2013-04-27 15:08:00,
2013-04-27 11:13:00,82.9,66.6,30.11,ENE,68,8.1,8.1,58,0.00,CLR,,0.00,WeatherDisplay:10.37,2013-04-27 15:13:00,
2013-04-27 11:18:00,82.9,66.6,30.11,ESE,112,6.9,6.9,58,0.00,CLR,,0.00,WeatherDisplay:10.37,2013-04-27 15:18:00,
2013-04-27 11:23:00,83.3,66.0,30.11,SE,135,5.8,5.8,56,0.00,CLR,,0.00,WeatherDisplay:10.37,2013-04-27 15:23:00,
2013-04-27 11:28:00,83.1,66.3,30.11,ENE,68,2.3,4.5,57,0.00,CLR,,0.00,WeatherDisplay:10.37,2013-04-27 15:28:00,
2013-04-27 11:33:00,83.3,66.0,30.11,NNE,22,9.2,9.2,56,0.00,CLR,,0.00,WeatherDisplay:10.37,2013-04-27 15:33:00,
2013-04-27 11:38:00,83.7,66.8,30.12,ENE,68,9.2,9.2,57,0.00,CLR,,0.00,WeatherDisplay:10.37,2013-04-27 15:38:00,
2013-04-27 11:43:00,83.7,66.3,30.12,ENE,68,5.8,5.8,56,0.00,CLR,,0.00,WeatherDisplay:10.37,2013-04-27 15:43:00,
2013-04-27 11:48:00,83.7,66.3,30.12,ESE,112,6.9,6.9,56,0.00,CLR,,0.00,WeatherDisplay:10.37,2013-04-27 15:48:00,
2013-04-27 11:53:00,84.0,66.1,30.12,ESE,112,4.6,4.6,55,0.00,CLR,,0.00,WeatherDisplay:10.37,2013-04-27 15:53:00,
2013-04-27 11:58:00,84.4,67.0,30.12,NE,45,9.2,9.2,56,0.00,CLR,,0.00,WeatherDisplay:10.37,2013-04-27 15:58:00,
2013-04-27 12:03:00,84.2,66.3,30.12,ENE,68,10.4,10.4,55,0.00,CLR,,0.00,WeatherDisplay:10.37,2013-04-27 16:03:00,
2013-04-27 12:09:00,84.7,66.8,30.12,ESE,112,4.6,4.9,55,0.00,CLR,,0.00,WeatherDisplay:10.37,2013-04-27 16:09:00,
2013-04-27 12:14:00,84.4,67.0,30.12,East,90,9.2,9.2,56,0.00,CLR,,0.00,WeatherDisplay:10.37,2013-04-27 16:14:00,
2013-04-27 12:19:00,84.6,66.1,30.12,ESE,112,5.8,5.8,54,0.00,CLR,,0.00,WeatherDisplay:10.37,2013-04-27 16:19:00,
2013-04-27 12:24:00,84.7,66.8,30.12,West,270,4.6,4.9,55,0.00,CLR,,0.00,WeatherDisplay:10.37,2013-04-27 16:24:00,
2013-04-27 12:29:00,85.1,66.6,30.12,ESE,112,10.4,10.4,54,0.00,CLR,,0.00,WeatherDisplay:10.37,2013-04-27 16:29:00,
2013-04-27 12:34:00,85.5,66.4,30.12,SE,135,10.4,10.4,53,0.00,CLR,,0.00,WeatherDisplay:10.37,2013-04-27 16:34:00,
2013-04-27 12:39:00,85.5,66.4,30.12,East,90,3.5,5.8,53,0.00,CLR,,0.00,WeatherDisplay:10.37,2013-04-27 16:39:00,
2013-04-27 12:44:00,84.9,64.8,30.12,ENE,68,9.2,9.2,51,0.00,CLR,,0.00,WeatherDisplay:10.37,2013-04-27 16:44:00,
2013-04-27 12:49:00,85.5,65.8,30.12,East,90,3.5,4.1,52,0.00,CLR,,0.00,WeatherDisplay:10.37,2013-04-27 16:49:00,
2013-04-27 12:54:00,85.8,65.6,30.12,NNW,338,3.5,4.6,51,0.00,CLR,,0.00,WeatherDisplay:10.37,2013-04-27 16:54:00,
2013-04-27 12:59:00,86.2,65.9,30.12,ENE,68,5.8,5.8,51,0.00,CLR,,0.00,WeatherDisplay:10.37,2013-04-27 16:59:00,
2013-04-27 13:04:00,86.0,66.3,30.12,ESE,112,9.2,9.2,52,0.00,CLR,,0.00,WeatherDisplay:10.37,2013-04-27 17:04:00,
2013-04-27 13:09:00,86.2,65.9,30.12,ENE,68,8.1,8.1,51,0.00,CLR,,0.00,WeatherDisplay:10.37,2013-04-27 17:09:00,
2013-04-27 13:14:00,86.4,65.5,30.12,NE,45,6.9,6.9,50,0.00,CLR,,0.00,WeatherDisplay:10.37,2013-04-27 17:14:00,
2013-04-27 13:19:00,86.5,66.3,30.12,ESE,112,4.6,5.4,51,0.00,CLR,,0.00,WeatherDisplay:10.37,2013-04-27 17:19:00,
2013-04-27 13:24:00,86.7,65.9,30.12,NE,45,4.6,4.6,50,0.00,CLR,,0.00,WeatherDisplay:10.37,2013-04-27 17:24:00,
2013-04-27 13:29:00,86.7,65.9,30.12,East,90,6.9,6.9,50,0.00,CLR,,0.00,WeatherDisplay:10.37,2013-04-27 17:29:00,
2013-04-27 13:34:00,86.5,65.1,30.12,SE,135,6.9,6.9,49,0.00,CLR,,0.00,WeatherDisplay:10.37,2013-04-27 17:34:00,
2013-04-27 13:39:00,86.5,65.7,30.11,NE,45,4.6,4.8,50,0.00,CLR,,0.00,WeatherDisplay:10.37,2013-04-27 17:39:00,
2013-04-27 13:44:00,86.7,66.4,30.11,ESE,112,9.2,9.2,51,0.00,CLR,,0.00,WeatherDisplay:10.37,2013-04-27 17:44:00,
2013-04-27 13:49:00,86.9,66.0,30.11,East,90,6.9,6.9,50,0.00,CLR,,0.00,WeatherDisplay:10.37,2013-04-27 17:49:00,
2013-04-27 13:54:00,86.9,66.0,30.11,ENE,68,8.1,8.1,50,0.00,CLR,,0.00,WeatherDisplay:10.37,2013-04-27 17:54:00,
2013-04-27 13:59:00,87.1,66.2,30.11,SE,135,6.9,6.9,50,0.00,CLR,,0.00,WeatherDisplay:10.37,2013-04-27 17:59:00,
2013-04-27 14:04:00,87.8,66.3,30.11,ENE,68,5.8,5.8,49,0.00,CLR,,0.00,WeatherDisplay:10.37,2013-04-27 18:04:00,
2013-04-27 14:09:00,87.3,66.4,30.11,NNW,338,8.1,8.1,50,0.00,CLR,,0.00,WeatherDisplay:10.37,2013-04-27 18:09:00,
2013-04-27 14:14:00,86.9,66.6,30.11,East,90,6.9,6.9,51,0.00,CLR,,0.00,WeatherDisplay:10.37,2013-04-27 18:14:00,
2013-04-27 14:19:00,87.3,66.4,30.11,NE,45,4.6,4.8,50,0.00,CLR,,0.00,WeatherDisplay:10.37,2013-04-27 18:19:00,
2013-04-27 14:24:00,87.1,65.6,30.11,ESE,112,8.1,8.1,49,0.00,CLR,,0.00,WeatherDisplay:10.37,2013-04-27 18:24:00,
2013-04-27 14:29:00,87.3,65.8,30.11,SE,135,4.6,4.6,49,0.00,CLR,,0.00,WeatherDisplay:10.37,2013-04-27 18:29:00,
2013-04-27 14:34:00,87.4,65.9,30.11,NNE,22,6.9,6.9,49,0.00,CLR,,0.00,WeatherDisplay:10.37,2013-04-27 18:34:00,
2013-04-27 14:39:00,87.3,66.4,30.10,ENE,68,4.6,4.6,50,0.00,CLR,,0.00,WeatherDisplay:10.37,2013-04-27 18:39:00,
2013-04-27 14:44:00,86.7,66.4,30.10,East,90,6.9,6.9,51,0.00,CLR,,0.00,WeatherDisplay:10.37,2013-04-27 18:44:00,
2013-04-27 14:49:00,86.7,65.9,30.10,ENE,68,8.1,8.1,50,0.00,CLR,,0.00,WeatherDisplay:10.37,2013-04-27 18:49:00,
2013-04-27 14:54:00,86.4,65.5,30.10,ENE,68,4.6,4.8,50,0.00,CLR,,0.00,WeatherDisplay:10.37,2013-04-27 18:54:00,
2013-04-27 14:59:00,86.9,66.0,30.10,East,90,8.1,8.1,50,0.00,CLR,,0.00,WeatherDisplay:10.37,2013-04-27 18:59:00,
2013-04-27 15:04:00,86.5,66.3,30.10,NNE,22,6.9,6.9,51,0.00,CLR,,0.00,WeatherDisplay:10.37,2013-04-27 19:04:00,
2013-04-27 15:09:00,86.5,66.3,30.10,NE,45,6.9,6.9,51,0.00,CLR,,0.00,WeatherDisplay:10.37,2013-04-27 19:09:00,
2013-04-27 15:14:00,86.5,66.8,30.10,East,90,4.6,4.6,52,0.00,CLR,,0.00,WeatherDisplay:10.37,2013-04-27 19:14:00,
2013-04-27 15:19:00,86.5,66.8,30.09,NE,45,5.8,5.8,52,0.00,CLR,,0.00,WeatherDisplay:10.37,2013-04-27 19:19:00,
2013-04-27 15:24:00,86.5,66.3,30.09,ENE,68,6.9,6.9,51,0.00,CLR,,0.00,WeatherDisplay:10.37,2013-04-27 19:24:00,
2013-04-27 15:29:00,86.2,66.5,30.09,North,0,3.5,4.3,52,0.00,CLR,,0.00,WeatherDisplay:10.37,2013-04-27 19:29:00,
2013-04-27 15:34:00,86.0,66.9,30.09,East,90,4.6,4.6,53,0.00,CLR,,0.00,WeatherDisplay:10.37,2013-04-27 19:34:00,
2013-04-27 15:39:00,85.8,66.7,30.08,ENE,68,4.6,4.6,53,0.00,CLR,,0.00,WeatherDisplay:10.37,2013-04-27 19:39:00,
2013-04-27 15:44:00,85.6,66.5,30.08,NE,45,6.9,6.9,53,0.00,CLR,,0.00,WeatherDisplay:10.37,2013-04-27 19:44:00,
2013-04-27 15:49:00,85.8,66.7,30.08,ENE,68,4.6,4.6,53,0.00,CLR,,0.00,WeatherDisplay:10.37,2013-04-27 19:49:00,
2013-04-27 15:54:00,85.8,66.7,30.08,ENE,68,4.6,4.6,53,0.00,CLR,,0.00,WeatherDisplay:10.37,2013-04-27 19:54:00,
2013-04-27 15:59:00,85.5,66.4,30.07,ENE,68,4.6,4.6,53,0.00,CLR,,0.00,WeatherDisplay:10.37,2013-04-27 19:59:00,
2013-04-27 16:04:00,85.8,67.3,30.07,East,90,5.8,5.8,54,0.00,CLR,,0.00,WeatherDisplay:10.37,2013-04-27 20:04:00,
2013-04-27 16:09:00,85.8,67.3,30.07,East,90,6.9,6.9,54,0.00,CLR,,0.00,WeatherDisplay:10.37,2013-04-27 20:09:00,
2013-04-27 16:14:00,85.5,66.4,30.07,SE,135,4.6,4.6,53,0.00,CLR,,0.00,WeatherDisplay:10.37,2013-04-27 20:14:00,
2013-04-27 16:19:00,85.5,66.4,30.07,NE,45,5.8,5.8,53,0.00,CLR,,0.00,WeatherDisplay:10.37,2013-04-27 20:19:00,
2013-04-27 16:24:00,85.6,67.1,30.07,ENE,68,3.5,3.7,54,0.00,CLR,,0.00,WeatherDisplay:10.37,2013-04-27 20:24:00,
2013-04-27 16:29:00,85.5,66.4,30.07,NNW,338,5.8,5.8,53,0.00,CLR,,0.00,WeatherDisplay:10.37,2013-04-27 20:29:00,
2013-04-27 16:34:00,85.3,66.8,30.07,NNE,22,5.8,5.8,54,0.00,CLR,,0.00,WeatherDisplay:10.37,2013-04-27 20:34:00,
2013-04-27 16:39:00,84.9,66.4,30.07,ENE,68,4.6,4.6,54,0.00,CLR,,0.00,WeatherDisplay:10.37,2013-04-27 20:39:00,
2013-04-27 16:44:00,85.1,67.1,30.07,ENE,68,6.9,6.9,55,0.00,CLR,,0.00,WeatherDisplay:10.37,2013-04-27 20:44:00,
2013-04-27 16:49:00,85.1,67.1,30.07,ENE,68,2.3,3.6,55,0.00,CLR,,0.00,WeatherDisplay:10.37,2013-04-27 20:49:00,
2013-04-27 16:54:00,84.7,66.8,30.07,NE,45,5.8,5.8,55,0.00,CLR,,0.00,WeatherDisplay:10.37,2013-04-27 20:54:00,
2013-04-27 16:59:00,84.6,66.6,30.06,East,90,1.1,3.2,55,0.00,CLR,,0.00,WeatherDisplay:10.37,2013-04-27 20:59:00,
2013-04-27 17:04:00,84.4,67.0,30.06,SE,135,4.6,4.6,56,0.00,CLR,,0.00,WeatherDisplay:10.37,2013-04-27 21:04:00,
2013-04-27 17:09:00,84.4,67.0,30.06,ENE,68,4.6,4.6,56,0.00,CLR,,0.00,WeatherDisplay:10.37,2013-04-27 21:09:00,
2013-04-27 17:14:00,84.7,67.3,30.06,East,90,4.6,4.6,56,0.00,CLR,,0.00,WeatherDisplay:10.37,2013-04-27 21:14:00,
2013-04-27 17:19:00,84.0,67.1,30.06,NE,45,4.6,4.6,57,0.00,CLR,,0.00,WeatherDisplay:10.37,2013-04-27 21:19:00,
2013-04-27 17:24:00,84.0,67.1,30.06,ESE,112,5.8,5.8,57,0.00,CLR,,0.00,WeatherDisplay:10.37,2013-04-27 21:24:00,
2013-04-27 17:29:00,83.5,66.6,30.06,SE,135,4.6,4.6,57,0.00,CLR,,0.00,WeatherDisplay:10.37,2013-04-27 21:29:00,
2013-04-27 17:34:00,83.7,66.8,30.06,East,90,5.8,5.8,57,0.00,CLR,,0.00,WeatherDisplay:10.37,2013-04-27 21:34:00,
2013-04-27 17:39:00,83.5,66.1,30.06,East,90,3.5,3.7,56,0.00,CLR,,0.00,WeatherDisplay:10.37,2013-04-27 21:39:00,
2013-04-27 17:44:00,83.1,66.3,30.06,ESE,112,5.8,5.8,57,0.00,CLR,,0.00,WeatherDisplay:10.37,2013-04-27 21:44:00,
2013-04-27 17:49:00,83.1,66.8,30.06,NNE,22,2.3,3.7,58,0.00,CLR,,0.00,WeatherDisplay:10.37,2013-04-27 21:49:00,
2013-04-27 17:54:00,82.8,66.5,30.06,SE,135,4.6,4.6,58,0.00,CLR,,0.00,WeatherDisplay:10.37,2013-04-27 21:54:00,
2013-04-27 17:59:00,82.9,67.1,30.05,East,90,2.3,3.5,59,0.00,CLR,,0.00,WeatherDisplay:10.37,2013-04-27 21:59:00,
2013-04-27 18:04:00,82.4,66.6,30.05,ENE,68,4.6,4.6,59,0.00,CLR,,0.00,WeatherDisplay:10.37,2013-04-27 22:04:00,
2013-04-27 18:09:00,82.2,66.5,30.05,ESE,112,3.5,3.5,59,0.00,CLR,,0.00,WeatherDisplay:10.37,2013-04-27 22:09:00,
2013-04-27 18:14:00,82.0,66.8,30.05,ESE,112,4.6,4.6,60,0.00,CLR,,0.00,WeatherDisplay:10.37,2013-04-27 22:14:00,
2013-04-27 18:19:00,82.2,66.5,30.05,NE,45,4.6,4.6,59,0.00,CLR,,0.00,WeatherDisplay:10.37,2013-04-27 22:19:00,
2013-04-27 18:24:00,81.7,66.0,30.05,ENE,68,5.8,5.8,59,0.00,CLR,,0.00,WeatherDisplay:10.37,2013-04-27 22:24:00,
2013-04-27 18:29:00,81.5,66.3,30.05,ESE,112,5.8,5.8,60,0.00,CLR,,0.00,WeatherDisplay:10.37,2013-04-27 22:29:00,
2013-04-27 18:34:00,81.7,66.9,30.05,ENE,68,3.5,3.5,61,0.00,CLR,,0.00,WeatherDisplay:10.37,2013-04-27 22:34:00,
2013-04-27 18:39:00,81.5,66.8,30.05,ESE,112,2.3,2.6,61,0.00,CLR,,0.00,WeatherDisplay:10.37,2013-04-27 22:39:00,
2013-04-27 18:44:00,81.1,66.4,30.05,NNW,338,5.8,5.8,61,0.00,CLR,,0.00,WeatherDisplay:10.37,2013-04-27 22:44:00,
2013-04-27 18:49:00,81.1,66.4,30.05,ENE,68,5.8,5.8,61,0.00,CLR,,0.00,WeatherDisplay:10.37,2013-04-27 22:49:00,
2013-04-27 18:54:00,80.8,66.5,30.05,ENE,68,4.6,4.6,62,0.00,CLR,,0.00,WeatherDisplay:10.37,2013-04-27 22:54:00,
2013-04-27 18:59:00,80.4,66.7,30.05,ESE,112,3.5,3.5,63,0.00,CLR,,0.00,WeatherDisplay:10.37,2013-04-27 22:59:00,
2013-04-27 19:04:00,80.4,66.7,30.05,East,90,6.9,6.9,63,0.00,CLR,,0.00,WeatherDisplay:10.37,2013-04-27 23:04:00,
2013-04-27 19:09:00,80.4,66.2,30.05,ENE,68,5.8,5.8,62,0.00,CLR,,0.00,WeatherDisplay:10.37,2013-04-27 23:09:00,
2013-04-27 19:14:00,80.2,66.5,30.05,ENE,68,5.8,5.8,63,0.00,CLR,,0.00,WeatherDisplay:10.37,2013-04-27 23:14:00,
2013-04-27 19:19:00,80.1,66.8,30.05,North,0,3.5,3.5,64,0.00,CLR,,0.00,WeatherDisplay:10.37,2013-04-27 23:19:00,
2013-04-27 19:24:00,79.9,66.6,30.05,ENE,68,4.6,4.6,64,0.00,CLR,,0.00,WeatherDisplay:10.37,2013-04-27 23:24:00,
2013-04-27 19:29:00,79.7,66.4,30.05,ENE,68,4.6,4.6,64,0.00,CLR,,0.00,WeatherDisplay:10.37,2013-04-27 23:29:00,
2013-04-27 19:34:00,79.5,66.3,30.05,NNE,22,3.5,3.5,64,0.00,CLR,,0.00,WeatherDisplay:10.37,2013-04-27 23:34:00,
2013-04-27 19:39:00,79.5,66.7,30.05,NNE,22,1.1,2.2,65,0.00,CLR,,0.00,WeatherDisplay:10.37,2013-04-27 23:39:00,
2013-04-27 19:44:00,79.7,67.3,30.05,ESE,112,2.3,2.3,66,0.00,CLR,,0.00,WeatherDisplay:10.37,2013-04-27 23:44:00,
2013-04-27 19:49:00,79.3,67.0,30.05,NE,45,5.8,5.8,66,0.00,CLR,,0.00,WeatherDisplay:10.37,2013-04-27 23:49:00,
2013-04-27 19:54:00,79.3,67.0,30.05,ENE,68,3.5,3.5,66,0.00,CLR,,0.00,WeatherDisplay:10.37,2013-04-27 23:54:00,
2013-04-27 19:59:00,79.0,66.6,30.05,ESE,112,4.6,4.6,66,0.00,CLR,,0.00,WeatherDisplay:10.37,2013-04-27 23:59:00,
2013-04-27 20:04:00,78.8,66.5,30.05,NE,45,3.5,3.5,66,0.00,CLR,,0.00,WeatherDisplay:10.37,2013-04-28 00:04:00,
2013-04-27 20:09:00,78.8,66.5,30.05,ENE,68,2.3,2.3,66,0.00,CLR,,0.00,WeatherDisplay:10.37,2013-04-28 00:09:00,
2013-04-27 20:14:00,78.6,66.3,30.05,ENE,68,2.3,2.3,66,0.00,CLR,,0.00,WeatherDisplay:10.37,2013-04-28 00:14:00,
2013-04-27 20:19:00,78.4,66.1,30.05,ENE,68,4.6,4.6,66,0.00,CLR,,0.00,WeatherDisplay:10.37,2013-04-28 00:19:00,
2013-04-27 20:24:00,78.6,66.7,30.05,NE,45,4.6,4.6,67,0.00,CLR,,0.00,WeatherDisplay:10.37,2013-04-28 00:24:00,
2013-04-27 20:29:00,78.4,66.6,30.05,NE,45,2.3,2.3,67,0.00,CLR,,0.00,WeatherDisplay:10.37,2013-04-28 00:29:00,
2013-04-27 20:34:00,78.3,66.4,30.05,East,90,2.3,2.3,67,0.00,CLR,,0.00,WeatherDisplay:10.37,2013-04-28 00:34:00,
2013-04-27 20:39:00,78.3,66.8,30.05,ENE,68,2.3,2.3,68,0.00,CLR,,0.00,WeatherDisplay:10.37,2013-04-28 00:39:00,
2013-04-27 20:44:00,78.3,66.8,30.05,East,90,4.6,4.6,68,0.00,CLR,,0.00,WeatherDisplay:10.37,2013-04-28 00:44:00,
2013-04-27 20:50:00,78.4,66.6,30.05,ENE,68,3.5,3.5,67,0.00,CLR,,0.00,WeatherDisplay:10.37,2013-04-28 00:50:00,
2013-04-27 20:55:00,78.3,66.4,30.05,ESE,112,3.5,3.5,67,0.00,CLR,,0.00,WeatherDisplay:10.37,2013-04-28 00:55:00,
2013-04-27 21:00:00,78.1,66.2,30.06,SE,135,5.8,5.8,67,0.00,CLR,,0.00,WeatherDisplay:10.37,2013-04-28 01:00:00,
2013-04-27 21:05:00,78.3,66.4,30.06,ENE,68,4.6,4.6,67,0.00,CLR,,0.00,WeatherDisplay:10.37,2013-04-28 01:05:00,
2013-04-27 21:10:00,78.1,66.2,30.06,NNE,22,2.3,2.9,67,0.00,CLR,,0.00,WeatherDisplay:10.37,2013-04-28 01:10:00,
2013-04-27 21:15:00,78.1,66.2,30.06,SE,135,4.6,4.6,67,0.00,CLR,,0.00,WeatherDisplay:10.37,2013-04-28 01:15:00,
2013-04-27 21:20:00,78.1,66.2,30.06,East,90,4.6,4.6,67,0.00,CLR,,0.00,WeatherDisplay:10.37,2013-04-28 01:20:00,
2013-04-27 21:25:00,78.3,66.4,30.06,SE,135,6.9,6.9,67,0.00,CLR,,0.00,WeatherDisplay:10.37,2013-04-28 01:25:00,
2013-04-27 21:30:00,77.9,66.5,30.06,NE,45,3.5,3.5,68,0.00,CLR,,0.00,WeatherDisplay:10.37,2013-04-28 01:30:00,
2013-04-27 21:35:00,77.9,66.1,30.06,NE,45,5.8,5.8,67,0.00,CLR,,0.00,WeatherDisplay:10.37,2013-04-28 01:35:00,
2013-04-27 21:40:00,77.9,66.5,30.07,NNW,338,2.3,2.5,68,0.00,CLR,,0.00,WeatherDisplay:10.37,2013-04-28 01:40:00,
2013-04-27 21:45:00,77.7,66.3,30.07,ENE,68,3.5,3.5,68,0.00,CLR,,0.00,WeatherDisplay:10.37,2013-04-28 01:45:00,
2013-04-27 21:50:00,77.9,66.5,30.07,NE,45,3.5,3.5,68,0.00,CLR,,0.00,WeatherDisplay:10.37,2013-04-28 01:50:00,
2013-04-27 21:55:00,77.9,66.1,30.07,NNE,22,6.9,6.9,67,0.00,CLR,,0.00,WeatherDisplay:10.37,2013-04-28 01:55:00,
2013-04-27 22:00:00,77.4,65.5,30.07,ENE,68,3.5,3.5,67,0.00,CLR,,0.00,WeatherDisplay:10.37,2013-04-28 02:00:00,
2013-04-27 22:05:00,77.5,65.7,30.07,ENE,68,4.6,4.6,67,0.00,CLR,,0.00,WeatherDisplay:10.37,2013-04-28 02:05:00,
2013-04-27 22:10:00,77.5,65.7,30.07,ENE,68,4.6,4.6,67,0.00,CLR,,0.00,WeatherDisplay:10.37,2013-04-28 02:10:00,
2013-04-27 22:15:00,77.4,65.5,30.07,NE,45,4.6,4.6,67,0.00,CLR,,0.00,WeatherDisplay:10.37,2013-04-28 02:15:00,
2013-04-27 22:20:00,77.4,65.1,30.07,ENE,68,5.8,5.8,66,0.00,CLR,,0.00,WeatherDisplay:10.37,2013-04-28 02:20:00,
2013-04-27 22:25:00,77.2,64.5,30.07,SE,135,4.6,4.6,65,0.00,CLR,,0.00,WeatherDisplay:10.37,2013-04-28 02:25:00,
2013-04-27 22:30:00,77.2,64.5,30.07,South,180,3.5,3.5,65,0.00,CLR,,0.00,WeatherDisplay:10.37,2013-04-28 02:30:00,
2013-04-27 22:35:00,77.2,64.1,30.07,ENE,68,5.8,5.8,64,0.00,CLR,,0.00,WeatherDisplay:10.37,2013-04-28 02:35:00,
2013-04-27 22:40:00,77.2,64.1,30.07,ESE,112,5.8,5.8,64,0.00,CLR,,0.00,WeatherDisplay:10.37,2013-04-28 02:40:00,
2013-04-27 22:45:00,77.2,63.6,30.07,ENE,68,4.6,4.6,63,0.00,CLR,,0.00,WeatherDisplay:10.37,2013-04-28 02:45:00,
2013-04-27 22:50:00,77.0,63.9,30.07,NE,45,3.5,3.5,64,0.00,CLR,,0.00,WeatherDisplay:10.37,2013-04-28 02:50:00,
2013-04-27 22:55:00,77.2,64.1,30.07,ESE,112,6.9,6.9,64,0.00,CLR,,0.00,WeatherDisplay:10.37,2013-04-28 02:55:00,
2013-04-27 23:00:00,77.0,63.4,30.07,East,90,9.2,9.2,63,0.00,CLR,,0.00,WeatherDisplay:10.37,2013-04-28 03:00:00,
2013-04-27 23:05:00,77.0,63.9,30.07,East,90,5.8,5.8,64,0.00,CLR,,0.00,WeatherDisplay:10.37,2013-04-28 03:05:00,
2013-04-27 23:10:00,77.2,63.6,30.07,ENE,68,5.8,5.8,63,0.00,CLR,,0.00,WeatherDisplay:10.37,2013-04-28 03:10:00,
2013-04-27 23:15:00,77.2,63.6,30.07,ENE,68,6.9,6.9,63,0.00,CLR,,0.00,WeatherDisplay:10.37,2013-04-28 03:15:00,
2013-04-27 23:20:00,77.2,63.2,30.08,ESE,112,4.6,4.6,62,0.00,CLR,,0.00,WeatherDisplay:10.37,2013-04-28 03:20:00,
2013-04-27 23:25:00,77.0,63.0,30.08,ENE,68,8.1,8.1,62,0.00,CLR,,0.00,WeatherDisplay:10.37,2013-04-28 03:25:00,
2013-04-27 23:30:00,76.8,62.8,30.08,WSW,248,4.6,5.2,62,0.00,CLR,,0.00,WeatherDisplay:10.37,2013-04-28 03:30:00,
2013-04-27 23:35:00,76.8,62.8,30.08,East,90,8.1,8.1,62,0.00,CLR,,0.00,WeatherDisplay:10.37,2013-04-28 03:35:00,
2013-04-27 23:40:00,76.8,63.3,30.07,NNE,22,3.5,4.9,63,0.00,CLR,,0.00,WeatherDisplay:10.37,2013-04-28 03:40:00,
2013-04-27 23:45:00,76.8,62.8,30.07,ENE,68,4.6,4.8,62,0.00,CLR,,0.00,WeatherDisplay:10.37,2013-04-28 03:45:00,
2013-04-27 23:50:00,76.6,62.6,30.07,ENE,68,5.8,5.8,62,0.00,CLR,,0.00,WeatherDisplay:10.37,2013-04-28 03:50:00,
2013-04-27 23:55:00,76.8,62.8,30.07,East,90,6.9,6.9,62,0.00,CLR,,0.00,WeatherDisplay:10.37,2013-04-28 03:55:00,